,,Stat6,,Stat2,,Stat8,,Stat9,,Stat10,,Wind1,,Wind1,
time,status,PA1M_AVG,status,PR1M_SUM,status,RH1M_AVG,status,SR1M_AVG,status,TA1M_AVG,status,W1dAve1m,status,W1sAve1m,
2006-02-23, 00:00:00,VALID,915.912,VALID,0,VALID,98.0382,VALID,-0.0169808,VALID,19.653,VALID,90,VALID,0.826126,
2006-02-23, 00:01:00,VALID,915.912,VALID,0,VALID,97.9136,VALID,-0.0169808,VALID,19.6656,VALID,69,VALID,0.789789,
2006-02-23, 00:02:00,VALID,915.895,VALID,0,VALID,97.808,VALID,-0.0169808,VALID,19.6622,VALID,67,VALID,0.811955,
2006-02-23, 00:03:00,VALID,915.887,VALID,0,VALID,97.7292,VALID,0,VALID,19.6721,VALID,67,VALID,0.729226,
2006-02-23, 00:04:00,VALID,915.871,VALID,0,VALID,97.7241,VALID,0,VALID,19.6756,VALID,70,VALID,0.852307,
2006-02-23, 00:05:00,VALID,915.853,VALID,0,VALID,97.6211,VALID,0.0169808,VALID,19.6853,VALID,70,VALID,1.35309,
2006-02-23, 00:06:00,VALID,915.842,VALID,0,VALID,97.3324,VALID,0,VALID,19.7044,VALID,81,VALID,1.18045,
2006-02-23, 00:07:00,VALID,915.84,VALID,0,VALID,97.1252,VALID,-0.0339617,VALID,19.7171,VALID,90,VALID,1.16033,
2006-02-23, 00:08:00,VALID,915.821,VALID,0,VALID,96.9446,VALID,-0.0169808,VALID,19.7273,VALID,93,VALID,0.989099,
2006-02-23, 00:09:00,VALID,915.812,VALID,0,VALID,96.8174,VALID,0,VALID,19.7208,VALID,98,VALID,1.17714,
2006-02-23, 00:10:00,VALID,915.809,VALID,0,VALID,96.7093,VALID,-0.0169808,VALID,19.7206,VALID,89,VALID,1.15661,
2006-02-23, 00:11:00,VALID,915.799,VALID,0,VALID,96.6407,VALID,0,VALID,19.7469,VALID,80,VALID,0.647743,
2006-02-23, 00:12:00,VALID,915.796,VALID,0,VALID,96.558,VALID,0,VALID,19.7435,VALID,74,VALID,0.515625,
2006-02-23, 00:13:00,VALID,915.772,VALID,0,VALID,96.3838,VALID,0,VALID,19.7661,VALID,70,VALID,0.372514,
2006-02-23, 00:14:00,VALID,915.77,VALID,0,VALID,96.2249,VALID,0,VALID,19.7723,VALID,82,VALID,0.2875,
2006-02-23, 00:15:00,VALID,915.747,VALID,0,VALID,96.0952,VALID,0.0169808,VALID,19.785,VALID,86,VALID,0.329459,
2006-02-23, 00:16:00,VALID,915.739,VALID,0,VALID,95.9146,VALID,0.0169808,VALID,19.8081,VALID,116,VALID,0.357088,
2006-02-23, 00:17:00,VALID,915.721,VALID,0,VALID,95.7747,VALID,-0.0169808,VALID,19.8307,VALID,116,VALID,0.071766,
2006-02-23, 00:18:00,VALID,915.714,VALID,0,VALID,95.7048,VALID,-0.0169808,VALID,19.8272,VALID,116,VALID,0.0630327,
2006-02-23, 00:19:00,VALID,915.686,VALID,0,VALID,95.6933,VALID,-0.0339617,VALID,19.8372,VALID,127,VALID,0.286086,
2006-02-23, 00:20:00,VALID,915.661,VALID,0,VALID,95.6641,VALID,-0.0339617,VALID,19.8243,VALID,131,VALID,0.0933949,
2006-02-23, 00:21:00,VALID,915.623,VALID,0,VALID,95.6425,VALID,0,VALID,19.8084,VALID,131,VALID,0.226926,
2006-02-23, 00:22:00,VALID,915.6,VALID,0,VALID,95.5713,VALID,0.0339617,VALID,19.7877,VALID,135,VALID,0.307165,
2006-02-23, 00:23:00,VALID,915.561,VALID,0,VALID,95.7226,VALID,0.101885,VALID,19.7716,VALID,134,VALID,0.464208,
2006-02-23, 00:24:00,VALID,915.537,VALID,0,VALID,95.8688,VALID,0.0679233,VALID,19.7315,VALID,130,VALID,0.5625,
2006-02-23, 00:25:00,VALID,915.526,VALID,0,VALID,95.954,VALID,0.0679233,VALID,19.7223,VALID,143,VALID,0.814546,
2006-02-23, 00:26:00,VALID,915.503,VALID,0,VALID,95.912,VALID,0.101885,VALID,19.7325,VALID,132,VALID,0.869336,
2006-02-23, 00:27:00,VALID,915.489,VALID,0,VALID,95.7556,VALID,0.0849042,VALID,19.7293,VALID,126,VALID,0.880632,
2006-02-23, 00:28:00,VALID,915.472,VALID,0,VALID,95.5776,VALID,0.101885,VALID,19.7519,VALID,135,VALID,1.13914,
2006-02-23, 00:29:00,VALID,915.465,VALID,0,VALID,95.3907,VALID,0.101885,VALID,19.7711,VALID,130,VALID,0.85992,
2006-02-23, 00:30:00,VALID,915.459,VALID,0,VALID,95.1961,VALID,0.0679233,VALID,19.8011,VALID,133,VALID,0.49891,
2006-02-23, 00:31:00,VALID,915.454,VALID,0,VALID,95.1771,VALID,0.0679233,VALID,19.7778,VALID,138,VALID,0.991425,
2006-02-23, 00:32:00,VALID,915.449,VALID,0,VALID,95.0575,VALID,0.101885,VALID,19.7643,VALID,145,VALID,0.841667,
2006-02-23, 00:33:00,VALID,915.446,VALID,0,VALID,95.1033,VALID,0.101885,VALID,19.7678,VALID,145,VALID,0.686612,
2006-02-23, 00:34:00,VALID,915.443,VALID,0,VALID,95.2114,VALID,0.0849042,VALID,19.7947,VALID,144,VALID,1.00799,
2006-02-23, 00:35:00,VALID,915.435,VALID,0,VALID,95.261,VALID,0.101885,VALID,19.788,VALID,131,VALID,0.660065,
2006-02-23, 00:36:00,VALID,915.424,VALID,0,VALID,95.3207,VALID,0.0849042,VALID,19.774,VALID,134,VALID,1.05673,
2006-02-23, 00:37:00,VALID,915.406,VALID,0,VALID,95.1796,VALID,0.0849042,VALID,19.7909,VALID,138,VALID,1.28385,
2006-02-23, 00:38:00,VALID,915.404,VALID,0,VALID,95.055,VALID,0,VALID,19.8176,VALID,130,VALID,1.42063,
2006-02-23, 00:39:00,VALID,915.393,VALID,0,VALID,94.8083,VALID,-0.0169808,VALID,19.8566,VALID,128,VALID,0.971154,
2006-02-23, 00:40:00,VALID,915.375,VALID,0,VALID,94.7091,VALID,0,VALID,19.876,VALID,148,VALID,0.971726,
2006-02-23, 00:41:00,VALID,915.353,VALID,0,VALID,94.7371,VALID,0,VALID,19.8964,VALID,159,VALID,0.915264,
2006-02-23, 00:42:00,VALID,915.343,VALID,0,VALID,94.9164,VALID,-0.0169808,VALID,19.8703,VALID,151,VALID,1.07903,
2006-02-23, 00:43:00,VALID,915.339,VALID,0,VALID,94.9825,VALID,0,VALID,19.8606,VALID,149,VALID,0.889353,
2006-02-23, 00:44:00,VALID,915.338,VALID,0,VALID,95.0868,VALID,0,VALID,19.828,VALID,148,VALID,1.12793,
2006-02-23, 00:45:00,VALID,915.32,VALID,0,VALID,95.144,VALID,-0.0169808,VALID,19.8086,VALID,144,VALID,0.880382,
2006-02-23, 00:46:00,VALID,915.317,VALID,0,VALID,95.2775,VALID,0,VALID,19.7691,VALID,147,VALID,0.750372,
2006-02-23, 00:47:00,VALID,915.321,VALID,0,VALID,95.3525,VALID,-0.0169808,VALID,19.7372,VALID,132,VALID,0.653533,
2006-02-23, 00:48:00,VALID,915.288,VALID,0,VALID,95.5954,VALID,0,VALID,19.689,VALID,128,VALID,0.857279,
2006-02-23, 00:49:00,VALID,915.277,VALID,0,VALID,95.8383,VALID,0.0169808,VALID,19.6433,VALID,114,VALID,0.987847,
2006-02-23, 00:50:00,VALID,915.262,VALID,0,VALID,96.0875,VALID,0,VALID,19.6139,VALID,100,VALID,1.07385,
2006-02-23, 00:51:00,VALID,915.236,VALID,0,VALID,96.2999,VALID,0.0339617,VALID,19.6084,VALID,100,VALID,1.04092,
2006-02-23, 00:52:00,VALID,915.211,VALID,0,VALID,96.5262,VALID,0,VALID,19.5689,VALID,104,VALID,1.23118,
2006-02-23, 00:53:00,VALID,915.186,VALID,0,VALID,96.4906,VALID,0,VALID,19.5525,VALID,116,VALID,1.43535,
2006-02-23, 00:54:00,VALID,915.169,VALID,0,VALID,96.3686,VALID,-0.0169808,VALID,19.5433,VALID,110,VALID,1.27998,
2006-02-23, 00:55:00,VALID,915.156,VALID,0,VALID,96.2999,VALID,0,VALID,19.5562,VALID,106,VALID,1.6026,
2006-02-23, 00:56:00,VALID,915.141,VALID,0,VALID,96.1575,VALID,0.0339617,VALID,19.559,VALID,113,VALID,1.54215,
2006-02-23, 00:57:00,VALID,915.133,VALID,0,VALID,96.1651,VALID,-0.0169808,VALID,19.5754,VALID,122,VALID,1.44151,
2006-02-23, 00:58:00,VALID,915.112,VALID,0,VALID,96.0799,VALID,0.0169808,VALID,19.6077,VALID,118,VALID,1.43096,
2006-02-23, 00:59:00,VALID,915.092,VALID,0,VALID,95.9298,VALID,-0.0339617,VALID,19.6338,VALID,117,VALID,1.09489,
2006-02-23, 01:00:00,VALID,915.052,VALID,0,VALID,95.9527,VALID,0,VALID,19.6405,VALID,114,VALID,1.2758,
2006-02-23, 01:01:00,VALID,915.038,VALID,0,VALID,95.9604,VALID,0,VALID,19.6438,VALID,114,VALID,1.30543,
2006-02-23, 01:02:00,VALID,915.015,VALID,0,VALID,95.9438,VALID,0,VALID,19.6368,VALID,111,VALID,1.01545,
2006-02-23, 01:03:00,VALID,915.007,VALID,0,VALID,96.0252,VALID,0.0169808,VALID,19.6308,VALID,116,VALID,1.38317,
2006-02-23, 01:04:00,VALID,915.016,VALID,0,VALID,96.0379,VALID,0,VALID,19.644,VALID,121,VALID,1.57422,
2006-02-23, 01:05:00,VALID,915.012,VALID,0,VALID,95.9388,VALID,0,VALID,19.6403,VALID,127,VALID,1.07958,
2006-02-23, 01:06:00,VALID,915,VALID,0,VALID,96.0239,VALID,-0.0169808,VALID,19.6338,VALID,138,VALID,1.18281,
2006-02-23, 01:07:00,VALID,915.001,VALID,0,VALID,96.1638,VALID,-0.0169808,VALID,19.6408,VALID,126,VALID,1.26853,
2006-02-23, 01:08:00,VALID,914.971,VALID,0,VALID,96.2236,VALID,-0.0169808,VALID,19.6341,VALID,147,VALID,1.58256,
2006-02-23, 01:09:00,VALID,914.955,VALID,0,VALID,96.277,VALID,0,VALID,19.637,VALID,153,VALID,1.90534,
2006-02-23, 01:10:00,VALID,914.935,VALID,0,VALID,96.2338,VALID,0.0339617,VALID,19.6701,VALID,152,VALID,1.63849,
2006-02-23, 01:11:00,VALID,914.923,VALID,0,VALID,96.2808,VALID,0,VALID,19.6793,VALID,145,VALID,1.35334,
2006-02-23, 01:12:00,VALID,914.915,VALID,0,VALID,96.1664,VALID,0,VALID,19.6855,VALID,145,VALID,1.41602,
2006-02-23, 01:13:00,VALID,914.92,VALID,0,VALID,96.1117,VALID,0.0169808,VALID,19.6758,VALID,147,VALID,0.926639,
2006-02-23, 01:14:00,VALID,914.922,VALID,0,VALID,96.1613,VALID,-0.0339617,VALID,19.6863,VALID,151,VALID,1.06481,
2006-02-23, 01:15:00,VALID,914.915,VALID,0,VALID,96.249,VALID,0.0169808,VALID,19.6666,VALID,147,VALID,1.02865,
2006-02-23, 01:16:00,VALID,914.917,VALID,0,VALID,96.2821,VALID,0,VALID,19.6535,VALID,143,VALID,0.535156,
2006-02-23, 01:17:00,VALID,914.922,VALID,0,VALID,96.4448,VALID,0.0169808,VALID,19.6172,VALID,139,VALID,1.1131,
2006-02-23, 01:18:00,VALID,914.93,VALID,0,VALID,96.4652,VALID,0.0169808,VALID,19.601,VALID,112,VALID,0.646913,
2006-02-23, 01:19:00,VALID,914.921,VALID,0,VALID,96.5669,VALID,-0.0169808,VALID,19.5786,VALID,142,VALID,0.680664,
2006-02-23, 01:20:01,VALID,914.929,VALID,0,VALID,96.5199,VALID,0.0339617,VALID,19.5684,VALID,123,VALID,0.892624,
2006-02-23, 01:21:01,VALID,914.929,VALID,0,VALID,96.5644,VALID,0.0169808,VALID,19.5525,VALID,125,VALID,0.985677,
2006-02-23, 01:22:00,VALID,914.931,VALID,0,VALID,96.5682,VALID,0.0339617,VALID,19.5366,VALID,133,VALID,0.670313,
2006-02-23, 01:23:00,VALID,914.929,VALID,0,VALID,96.6483,VALID,-0.0679233,VALID,19.5411,VALID,147,VALID,0.78016,
2006-02-23, 01:24:00,VALID,914.938,VALID,0,VALID,96.6178,VALID,-0.0679233,VALID,19.5247,VALID,156,VALID,0.472656,
2006-02-23, 01:25:00,VALID,914.94,VALID,0,VALID,96.6801,VALID,-0.0849042,VALID,19.5192,VALID,161,VALID,0.688565,
2006-02-23, 01:26:00,VALID,914.941,VALID,0,VALID,96.7322,VALID,-0.0849042,VALID,19.5192,VALID,170,VALID,1.15918,
2006-02-23, 01:27:01,VALID,914.958,VALID,0,VALID,96.6979,VALID,-0.0849042,VALID,19.5219,VALID,173,VALID,0.904297,
2006-02-23, 01:28:01,VALID,914.954,VALID,0,VALID,96.6165,VALID,-0.0849042,VALID,19.5187,VALID,170,VALID,0.529797,
2006-02-23, 01:29:00,VALID,914.947,VALID,0,VALID,96.6674,VALID,-0.0679233,VALID,19.5192,VALID,155,VALID,0.893483,
2006-02-23, 01:30:01,VALID,914.96,VALID,0,VALID,96.7297,VALID,-0.101885,VALID,19.509,VALID,158,VALID,0.956845,
2006-02-23, 01:31:01,VALID,914.948,VALID,0,VALID,96.7971,VALID,-0.0849042,VALID,19.5092,VALID,153,VALID,1.05602,
2006-02-23, 01:32:00,VALID,914.954,VALID,0,VALID,96.8073,VALID,-0.0679233,VALID,19.5122,VALID,153,VALID,1.2095,
2006-02-23, 01:33:00,VALID,914.948,VALID,0,VALID,96.8149,VALID,-0.101885,VALID,19.5284,VALID,157,VALID,1.0877,
2006-02-23, 01:34:01,VALID,914.943,VALID,0,VALID,96.7615,VALID,-0.118866,VALID,19.5448,VALID,146,VALID,0.955221,
2006-02-23, 01:35:00,VALID,914.931,VALID,0,VALID,96.7271,VALID,-0.0849042,VALID,19.5739,VALID,154,VALID,0.923971,
2006-02-23, 01:36:01,VALID,914.914,VALID,0,VALID,96.6572,VALID,-0.0679233,VALID,19.5831,VALID,141,VALID,0.531977,
2006-02-23, 01:37:00,VALID,914.904,VALID,0,VALID,96.5695,VALID,-0.0849042,VALID,19.599,VALID,137,VALID,1.30948,
2006-02-23, 01:38:01,VALID,914.892,VALID,0,VALID,96.3596,VALID,0,VALID,19.6206,VALID,137,VALID,1.11719,
2006-02-23, 01:39:00,VALID,914.864,VALID,0,VALID,96.0125,VALID,0.0169808,VALID,19.6632,VALID,136,VALID,1.27725,
2006-02-23, 01:40:00,VALID,914.84,VALID,0,VALID,95.72,VALID,0,VALID,19.7246,VALID,119,VALID,1.03963,
2006-02-23, 01:41:01,VALID,914.821,VALID,0,VALID,95.4937,VALID,0.0339617,VALID,19.7564,VALID,133,VALID,1.36086,
2006-02-23, 01:42:00,VALID,914.81,VALID,0,VALID,95.3843,VALID,0,VALID,19.7989,VALID,112,VALID,1.03764,
2006-02-23, 01:43:00,VALID,914.777,VALID,0,VALID,95.3068,VALID,0,VALID,19.8049,VALID,123,VALID,0.94375,
2006-02-23, 01:44:00,VALID,914.761,VALID,0,VALID,95.2661,VALID,0.0169808,VALID,19.8181,VALID,116,VALID,0.889101,
2006-02-23, 01:45:00,VALID,914.744,VALID,0,VALID,95.205,VALID,0.0169808,VALID,19.828,VALID,132,VALID,1.15607,
2006-02-23, 01:46:00,VALID,914.738,VALID,0,VALID,95.2139,VALID,0.0169808,VALID,19.8412,VALID,122,VALID,0.861555,
2006-02-23, 01:47:00,VALID,914.718,VALID,0,VALID,95.2139,VALID,0.0169808,VALID,19.8511,VALID,115,VALID,1.0101,
2006-02-23, 01:48:01,VALID,914.689,VALID,0,VALID,95.2864,VALID,0.0339617,VALID,19.8312,VALID,114,VALID,0.649554,
2006-02-23, 01:49:00,VALID,914.67,VALID,0,VALID,95.3742,VALID,0.0169808,VALID,19.8315,VALID,119,VALID,0.814808,
2006-02-23, 01:50:00,VALID,914.641,VALID,0,VALID,95.3856,VALID,0,VALID,19.8148,VALID,114,VALID,0.784784,
2006-02-23, 01:51:00,VALID,914.627,VALID,0,VALID,95.4772,VALID,0,VALID,19.8086,VALID,134,VALID,0.559048,
2006-02-23, 01:52:00,VALID,914.611,VALID,0,VALID,95.4873,VALID,0.0509425,VALID,19.7947,VALID,119,VALID,0.827753,
2006-02-23, 01:53:00,VALID,914.613,VALID,0,VALID,95.556,VALID,0.0339617,VALID,19.7947,VALID,119,VALID,0.49782,
2006-02-23, 01:54:00,VALID,914.602,VALID,0,VALID,95.5852,VALID,0.0509425,VALID,19.7845,VALID,115,VALID,0.612723,
2006-02-23, 01:55:00,VALID,914.606,VALID,0,VALID,95.603,VALID,0.0679233,VALID,19.7748,VALID,103,VALID,0.669922,
2006-02-23, 01:56:01,VALID,914.582,VALID,0,VALID,95.6208,VALID,0.0679233,VALID,19.7753,VALID,108,VALID,0.613104,
2006-02-23, 01:57:00,VALID,914.582,VALID,0,VALID,95.5814,VALID,0.101885,VALID,19.7785,VALID,108,VALID,0.580333,
2006-02-23, 01:58:00,VALID,914.575,VALID,0,VALID,95.5306,VALID,0.0849042,VALID,19.7681,VALID,108,VALID,0.35119,
2006-02-23, 01:59:01,VALID,914.564,VALID,0,VALID,95.6158,VALID,0.101885,VALID,19.7813,VALID,108,VALID,0.140053,
2006-02-23, 02:00:00,VALID,914.557,VALID,0,VALID,95.8256,VALID,0.0509425,VALID,19.8039,VALID,51,VALID,0.455221,
2006-02-23, 02:01:00,VALID,914.539,VALID,0,VALID,95.8917,VALID,0.0679233,VALID,19.8069,VALID,47,VALID,0.0727307,
2006-02-23, 02:02:00,VALID,914.525,VALID,0,VALID,95.9476,VALID,0.0679233,VALID,19.7872,VALID,47,VALID,0,
2006-02-23, 02:03:00,VALID,914.521,VALID,0,VALID,96.0214,VALID,0.0509425,VALID,19.7683,VALID,47,VALID,0,
2006-02-23, 02:04:00,VALID,914.521,VALID,0,VALID,96.0354,VALID,0.101885,VALID,19.7517,VALID,47,VALID,0,
2006-02-23, 02:05:01,VALID,914.515,VALID,0,VALID,96.0443,VALID,0.101885,VALID,19.732,VALID,47,VALID,0,
2006-02-23, 02:06:01,VALID,914.52,VALID,0,VALID,96.0138,VALID,0.101885,VALID,19.7198,VALID,47,VALID,0,
2006-02-23, 02:07:00,VALID,914.523,VALID,0,VALID,96.3368,VALID,0.0509425,VALID,19.7169,VALID,47,VALID,0.0835756,
2006-02-23, 02:08:00,VALID,914.516,VALID,0,VALID,96.5173,VALID,-0.0509425,VALID,19.7144,VALID,47,VALID,0.015625,
2006-02-23, 02:09:00,VALID,914.501,VALID,0,VALID,96.6152,VALID,-0.0509425,VALID,19.7149,VALID,47,VALID,0.000976563,
2006-02-23, 02:10:00,VALID,914.495,VALID,0,VALID,96.6369,VALID,-0.0339617,VALID,19.6883,VALID,47,VALID,0.00225694,
2006-02-23, 02:11:00,VALID,914.494,VALID,0,VALID,96.5606,VALID,-0.0169808,VALID,19.6883,VALID,47,VALID,0,
2006-02-23, 02:12:00,VALID,914.488,VALID,0,VALID,96.5364,VALID,-0.0509425,VALID,19.6793,VALID,47,VALID,0,
2006-02-23, 02:13:01,VALID,914.485,VALID,0,VALID,96.4894,VALID,-0.0339617,VALID,19.6828,VALID,47,VALID,0,
2006-02-23, 02:14:00,VALID,914.472,VALID,0,VALID,96.5911,VALID,-0.0169808,VALID,19.686,VALID,47,VALID,0,
2006-02-23, 02:15:01,VALID,914.466,VALID,0,VALID,96.8683,VALID,-0.0169808,VALID,19.6855,VALID,47,VALID,0,
2006-02-23, 02:16:01,VALID,914.446,VALID,0,VALID,97.0298,VALID,-0.0339617,VALID,19.699,VALID,47,VALID,0,
2006-02-23, 02:17:00,VALID,914.43,VALID,0,VALID,97.2345,VALID,-0.0169808,VALID,19.6726,VALID,47,VALID,0,
2006-02-23, 02:18:00,VALID,914.422,VALID,0,VALID,97.1887,VALID,-0.0679233,VALID,19.6699,VALID,47,VALID,0,
2006-02-23, 02:19:00,VALID,914.397,VALID,0,VALID,97.1035,VALID,-0.0169808,VALID,19.6438,VALID,96,VALID,0.480469,
2006-02-23, 02:20:01,VALID,914.356,VALID,0,VALID,97.1811,VALID,-0.0339617,VALID,19.6139,VALID,134,VALID,0.815104,
2006-02-23, 02:21:01,VALID,914.346,VALID,0,VALID,97.0374,VALID,-0.0169808,VALID,19.605,VALID,139,VALID,0.880435,
2006-02-23, 02:22:00,VALID,914.317,VALID,0,VALID,96.7488,VALID,-0.0339617,VALID,19.5891,VALID,139,VALID,0.724019,
2006-02-23, 02:23:01,VALID,914.303,VALID,0,VALID,96.6737,VALID,0.0849042,VALID,19.594,VALID,137,VALID,0.852983,
2006-02-23, 02:24:00,VALID,914.27,VALID,0,VALID,96.1943,VALID,0.0849042,VALID,19.5968,VALID,134,VALID,1.02827,
2006-02-23, 02:25:00,VALID,914.248,VALID,0,VALID,96.1282,VALID,0.0679233,VALID,19.6393,VALID,122,VALID,0.814862,
2006-02-23, 02:26:00,VALID,914.227,VALID,0,VALID,96.0265,VALID,0.101885,VALID,19.6515,VALID,134,VALID,1.13263,
2006-02-23, 02:27:00,VALID,914.218,VALID,0,VALID,96.0036,VALID,0.0339617,VALID,19.6706,VALID,127,VALID,1.08746,
2006-02-23, 02:28:00,VALID,914.196,VALID,0,VALID,95.8828,VALID,0.0679233,VALID,19.6743,VALID,124,VALID,1.20222,
2006-02-23, 02:29:01,VALID,914.183,VALID,0,VALID,95.5624,VALID,0.0849042,VALID,19.6773,VALID,122,VALID,1.1237,
2006-02-23, 02:30:00,VALID,914.161,VALID,0,VALID,95.1364,VALID,0.0679233,VALID,19.6865,VALID,121,VALID,1.28181,
2006-02-23, 02:31:00,VALID,914.14,VALID,0,VALID,94.9342,VALID,0.0849042,VALID,19.7425,VALID,116,VALID,1.08303,
2006-02-23, 02:32:01,VALID,914.112,VALID,0,VALID,94.7345,VALID,0.118866,VALID,19.7648,VALID,110,VALID,1.14737,
2006-02-23, 02:33:00,VALID,914.096,VALID,0,VALID,94.6087,VALID,0.101885,VALID,19.7944,VALID,109,VALID,1.12407,
2006-02-23, 02:34:00,VALID,914.069,VALID,0,VALID,94.4497,VALID,0.0679233,VALID,19.8004,VALID,112,VALID,1.11991,
2006-02-23, 02:35:00,VALID,914.046,VALID,0,VALID,94.2907,VALID,0.0679233,VALID,19.8267,VALID,113,VALID,1.02435,
2006-02-23, 02:36:01,VALID,914.015,VALID,0,VALID,94.1509,VALID,0.0679233,VALID,19.8168,VALID,115,VALID,1.38881,
2006-02-23, 02:37:00,VALID,913.984,VALID,0,VALID,93.8889,VALID,0.0169808,VALID,19.8203,VALID,119,VALID,1.34089,
2006-02-23, 02:38:01,VALID,913.956,VALID,0,VALID,93.599,VALID,-0.0169808,VALID,19.8471,VALID,124,VALID,1.45517,
2006-02-23, 02:39:01,VALID,913.922,VALID,0,VALID,93.3994,VALID,-0.0169808,VALID,19.8792,VALID,122,VALID,1.3266,
2006-02-23, 02:40:00,VALID,913.906,VALID,0,VALID,93.2086,VALID,0,VALID,19.8919,VALID,117,VALID,1.1242,
2006-02-23, 02:41:00,VALID,913.899,VALID,0,VALID,93.1488,VALID,0,VALID,19.9145,VALID,110,VALID,1.10442,
2006-02-23, 02:42:00,VALID,913.889,VALID,0,VALID,93.0878,VALID,-0.0169808,VALID,19.9282,VALID,121,VALID,1.39022,
2006-02-23, 02:43:00,VALID,913.867,VALID,0,VALID,93.1043,VALID,-0.0509425,VALID,19.9212,VALID,117,VALID,1.12386,
2006-02-23, 02:44:01,VALID,913.864,VALID,0,VALID,92.9607,VALID,0,VALID,19.918,VALID,126,VALID,1.53776,
2006-02-23, 02:45:00,VALID,913.848,VALID,0,VALID,92.7915,VALID,-0.0169808,VALID,19.9352,VALID,121,VALID,1.18941,
2006-02-23, 02:46:00,VALID,913.865,VALID,0,VALID,92.6237,VALID,-0.0509425,VALID,19.9411,VALID,110,VALID,1.28143,
2006-02-23, 02:47:00,VALID,913.865,VALID,0,VALID,92.4978,VALID,-0.0169808,VALID,19.9702,VALID,121,VALID,1.08665,
2006-02-23, 02:48:00,VALID,913.852,VALID,0,VALID,92.4546,VALID,0,VALID,19.9799,VALID,118,VALID,1.1108,
2006-02-23, 02:49:01,VALID,913.846,VALID,0,VALID,92.349,VALID,-0.0509425,VALID,19.9799,VALID,131,VALID,1.30814,
2006-02-23, 02:50:00,VALID,913.847,VALID,0,VALID,92.4355,VALID,-0.0679233,VALID,19.9864,VALID,133,VALID,0.946733,
2006-02-23, 02:51:00,VALID,913.839,VALID,0,VALID,92.494,VALID,-0.0339617,VALID,19.9794,VALID,115,VALID,1.17756,
2006-02-23, 02:52:01,VALID,913.839,VALID,0,VALID,92.4914,VALID,0.0339617,VALID,19.9695,VALID,127,VALID,1.37784,
2006-02-23, 02:53:01,VALID,913.843,VALID,0,VALID,92.583,VALID,0.0339617,VALID,19.9722,VALID,131,VALID,1.10063,
2006-02-23, 02:54:00,VALID,913.846,VALID,0,VALID,92.4902,VALID,0.0339617,VALID,19.9555,VALID,131,VALID,1.19552,
2006-02-23, 02:55:00,VALID,913.849,VALID,0,VALID,92.4062,VALID,0.0679233,VALID,19.9754,VALID,124,VALID,1.15682,
2006-02-23, 02:56:00,VALID,913.851,VALID,0,VALID,92.2104,VALID,0.0679233,VALID,19.9714,VALID,127,VALID,1.23917,
2006-02-23, 02:57:01,VALID,913.844,VALID,0,VALID,91.9624,VALID,0.0509425,VALID,20.0172,VALID,137,VALID,0.943462,
2006-02-23, 02:58:01,VALID,913.847,VALID,0,VALID,91.8912,VALID,0.0509425,VALID,20.0294,VALID,143,VALID,0.802269,
2006-02-23, 02:59:00,VALID,913.843,VALID,0,VALID,91.9955,VALID,0.0339617,VALID,20.0525,VALID,141,VALID,0.478566,
2006-02-23, 03:00:00,VALID,913.848,VALID,0,VALID,91.9891,VALID,0.0339617,VALID,20.0694,VALID,157,VALID,0.720567,
2006-02-23, 03:01:00,VALID,913.829,VALID,0,VALID,91.9268,VALID,0.0339617,VALID,20.0657,VALID,162,VALID,0.93936,
2006-02-23, 03:02:01,VALID,913.826,VALID,0,VALID,91.9917,VALID,0.0339617,VALID,20.0657,VALID,146,VALID,0.865189,
2006-02-23, 03:03:00,VALID,913.815,VALID,0,VALID,92.157,VALID,0.0339617,VALID,20.0716,VALID,165,VALID,0.677912,
2006-02-23, 03:04:00,VALID,913.812,VALID,0,VALID,92.2447,VALID,0.0339617,VALID,20.0528,VALID,165,VALID,0.598323,
2006-02-23, 03:05:01,VALID,913.797,VALID,0,VALID,92.2829,VALID,0.0339617,VALID,20.0401,VALID,174,VALID,0.616443,
2006-02-23, 03:06:01,VALID,913.787,VALID,0,VALID,92.4533,VALID,0,VALID,20.0204,VALID,173,VALID,0.810069,
2006-02-23, 03:07:01,VALID,913.776,VALID,0,VALID,92.7165,VALID,0.0169808,VALID,19.9943,VALID,173,VALID,0.567336,
2006-02-23, 03:08:00,VALID,913.768,VALID,0,VALID,92.6555,VALID,0.0679233,VALID,19.9784,VALID,154,VALID,0.918899,
2006-02-23, 03:09:01,VALID,913.732,VALID,0,VALID,92.6237,VALID,0.0509425,VALID,19.9558,VALID,146,VALID,0.699751,
2006-02-23, 03:10:00,VALID,913.729,VALID,0,VALID,92.714,VALID,0.0339617,VALID,19.9461,VALID,131,VALID,0.789444,
2006-02-23, 03:11:00,VALID,913.71,VALID,0,VALID,92.6313,VALID,0.0679233,VALID,19.9302,VALID,116,VALID,0.84484,
2006-02-23, 03:12:01,VALID,913.689,VALID,0,VALID,92.3846,VALID,0.0679233,VALID,19.9267,VALID,130,VALID,1.25479,
2006-02-23, 03:13:00,VALID,913.677,VALID,0,VALID,91.9599,VALID,0.0509425,VALID,19.9264,VALID,131,VALID,1.33296,
2006-02-23, 03:14:01,VALID,913.673,VALID,0,VALID,91.7959,VALID,0.0509425,VALID,19.9784,VALID,113,VALID,1.34082,
2006-02-23, 03:15:01,VALID,913.677,VALID,0,VALID,90.8625,VALID,0.0509425,VALID,20.0366,VALID,118,VALID,2.00472,
2006-02-23, 03:16:01,VALID,913.673,VALID,0,VALID,90.6934,VALID,0.0339617,VALID,20.1403,VALID,114,VALID,1.54545,
2006-02-23, 03:17:01,VALID,913.665,VALID,0,VALID,90.5853,VALID,0.0849042,VALID,20.185,VALID,108,VALID,1.46421,
2006-02-23, 03:18:01,VALID,913.663,VALID,0,VALID,90.7722,VALID,0.0849042,VALID,20.2049,VALID,114,VALID,1.74014,
2006-02-23, 03:19:01,VALID,913.642,VALID,0,VALID,90.8879,VALID,0.0509425,VALID,20.1888,VALID,113,VALID,1.81213,
2006-02-23, 03:20:00,VALID,913.622,VALID,0,VALID,91.1804,VALID,0.0339617,VALID,20.1592,VALID,102,VALID,1.34339,
2006-02-23, 03:21:00,VALID,913.598,VALID,0,VALID,91.3711,VALID,0.0849042,VALID,20.1271,VALID,96,VALID,1.42369,
2006-02-23, 03:22:01,VALID,913.566,VALID,0,VALID,91.4614,VALID,0.0509425,VALID,20.0819,VALID,102,VALID,1.2056,
2006-02-23, 03:23:01,VALID,913.556,VALID,0,VALID,91.511,VALID,-0.0339617,VALID,20.0664,VALID,117,VALID,1.6372,
2006-02-23, 03:24:01,VALID,913.531,VALID,0,VALID,91.6623,VALID,-0.0679233,VALID,20.0503,VALID,117,VALID,1.53196,
2006-02-23, 03:25:01,VALID,913.504,VALID,0,VALID,91.6471,VALID,-0.0509425,VALID,20.0212,VALID,121,VALID,1.80525,
2006-02-23, 03:26:00,VALID,913.499,VALID,0,VALID,91.6878,VALID,-0.0509425,VALID,20.0252,VALID,109,VALID,1.40916,
2006-02-23, 03:27:01,VALID,913.48,VALID,0,VALID,91.6776,VALID,-0.0169808,VALID,20.0182,VALID,106,VALID,1.36928,
2006-02-23, 03:28:00,VALID,913.495,VALID,0,VALID,91.7158,VALID,-0.0509425,VALID,20.0217,VALID,112,VALID,1.75781,
2006-02-23, 03:29:00,VALID,913.487,VALID,0,VALID,91.8938,VALID,-0.0509425,VALID,20.018,VALID,120,VALID,1.71384,
2006-02-23, 03:30:01,VALID,913.483,VALID,0,VALID,92.1723,VALID,-0.0509425,VALID,19.9899,VALID,116,VALID,1.92541,
2006-02-23, 03:31:01,VALID,913.469,VALID,0,VALID,92.4546,VALID,-0.0679233,VALID,19.957,VALID,113,VALID,1.81641,
2006-02-23, 03:32:01,VALID,913.445,VALID,0,VALID,92.5118,VALID,-0.0169808,VALID,19.9185,VALID,120,VALID,2.29142,
2006-02-23, 03:33:01,VALID,913.45,VALID,0,VALID,92.4596,VALID,-0.0169808,VALID,19.9083,VALID,126,VALID,1.96493,
2006-02-23, 03:34:00,VALID,913.446,VALID,0,VALID,92.7038,VALID,-0.0509425,VALID,19.9018,VALID,114,VALID,1.6141,
2006-02-23, 03:35:01,VALID,913.435,VALID,0,VALID,93.0102,VALID,-0.0339617,VALID,19.8534,VALID,116,VALID,1.20241,